TimeCST,TemperatureF,Dew PointF,Humidity,Sea Level PressureIn,VisibilityMPH,Wind Direction,Wind SpeedMPH,Gust SpeedMPH,PrecipitationIn,Events,Conditions,WindDirDegrees,DateUTC
12:55 AM,44.6,39.2,81,29.90,10.0,Calm,Calm,-,N/A,,Partly Cloudy,0,2012-12-19 06:55:00
1:15 AM,42.8,39.2,87,29.90,10.0,ESE,3.5,-,N/A,,Partly Cloudy,110,2012-12-19 07:15:00
1:35 AM,42.8,39.2,87,29.91,10.0,East,3.5,-,N/A,,Partly Cloudy,100,2012-12-19 07:35:00
1:55 AM,44.6,39.2,81,29.91,10.0,East,3.5,-,N/A,,Partly Cloudy,100,2012-12-19 07:55:00
2:15 AM,42.8,39.2,87,29.92,10.0,ESE,3.5,-,N/A,,Clear,110,2012-12-19 08:15:00
2:35 AM,44.6,39.2,81,29.92,10.0,East,3.5,-,N/A,,Clear,100,2012-12-19 08:35:00
2:55 AM,42.8,39.2,87,29.91,10.0,East,3.5,-,N/A,,Clear,100,2012-12-19 08:55:00
3:55 AM,44.6,41.0,87,29.91,10.0,Calm,Calm,-,N/A,,Clear,0,2012-12-19 09:55:00
4:55 AM,42.8,39.2,87,29.91,10.0,East,3.5,-,N/A,,Clear,100,2012-12-19 10:55:00
5:55 AM,42.8,39.2,87,29.93,10.0,ESE,4.6,-,N/A,,Clear,110,2012-12-19 11:55:00
6:55 AM,42.8,41.0,93,29.95,10.0,Calm,Calm,-,N/A,,Scattered Clouds,0,2012-12-19 12:55:00
7:55 AM,46.4,44.6,93,29.96,10.0,ESE,4.6,-,N/A,,Scattered Clouds,110,2012-12-19 13:55:00
8:55 AM,53.6,46.4,77,29.96,10.0,SE,5.8,-,N/A,,Mostly Cloudy,130,2012-12-19 14:55:00
9:55 AM,59.0,48.2,67,29.96,10.0,SSE,4.6,-,N/A,,Mostly Cloudy,160,2012-12-19 15:55:00
10:55 AM,62.6,50.0,63,29.93,10.0,SSE,9.2,-,N/A,,Mostly Cloudy,150,2012-12-19 16:55:00
11:55 AM,68.0,53.6,60,29.90,10.0,SSE,6.9,-,N/A,,Mostly Cloudy,160,2012-12-19 17:55:00
12:55 PM,69.8,53.6,56,29.88,10.0,SW,10.4,-,N/A,,Mostly Cloudy,220,2012-12-19 18:55:00
1:55 PM,69.8,53.6,56,29.86,10.0,South,8.1,-,N/A,,Mostly Cloudy,170,2012-12-19 19:55:00
2:55 PM,69.8,53.6,56,29.85,10.0,SSE,9.2,-,N/A,,Mostly Cloudy,160,2012-12-19 20:55:00
3:55 PM,66.2,51.8,60,29.84,10.0,SSE,5.8,-,N/A,,Overcast,160,2012-12-19 21:55:00
4:55 PM,64.4,46.4,52,29.82,10.0,ESE,6.9,-,N/A,,Mostly Cloudy,120,2012-12-19 22:55:00
5:55 PM,62.6,44.6,52,29.82,10.0,SE,6.9,-,N/A,,Mostly Cloudy,130,2012-12-19 23:55:00
6:55 PM,62.6,46.4,55,29.82,10.0,ESE,9.2,-,N/A,,Mostly Cloudy,120,2012-12-20 00:55:00
7:55 PM,62.6,46.4,55,29.79,10.0,SE,10.4,-,N/A,,Mostly Cloudy,130,2012-12-20 01:55:00
8:55 PM,64.4,48.2,56,29.76,10.0,SE,15.0,-,N/A,,Mostly Cloudy,140,2012-12-20 02:55:00
9:55 PM,64.4,48.2,56,29.73,10.0,SE,15.0,-,N/A,,Overcast,140,2012-12-20 03:55:00
10:55 PM,64.4,48.2,56,29.70,10.0,SE,15.0,-,N/A,,Overcast,140,2012-12-20 04:55:00
11:55 PM,64.4,50.0,59,29.66,10.0,SE,13.8,-,N/A,,Overcast,140,2012-12-20 05:55:00